Time,TemperatureF,DewpointF,PressureIn,WindDirection,WindDirectionDegrees,WindSpeedMPH,WindSpeedGustMPH,Humidity,HourlyPrecipIn,Conditions,Clouds,dailyrainin,SoftwareType,DateUTC
2013-11-03 00:02:00,36.5,31.5,30.06,SE,131,3.0,5.0,82,0.00,,,0.00,Wunderground v.1.15,2013-11-03 05:02:00,
2013-11-03 00:08:00,36.6,31.3,30.07,SE,134,4.0,4.0,81,0.00,,,0.00,Wunderground v.1.15,2013-11-03 05:08:00,
2013-11-03 00:13:00,36.6,31.3,30.07,SE,134,5.0,5.0,81,0.00,,,0.00,Wunderground v.1.15,2013-11-03 05:13:00,
2013-11-03 00:19:00,36.7,31.4,30.06,SE,130,5.0,5.0,81,0.00,,,0.00,Wunderground v.1.15,2013-11-03 05:19:00,
2013-11-03 00:25:00,36.8,31.5,30.07,SE,133,5.0,5.0,81,0.00,,,0.00,Wunderground v.1.15,2013-11-03 05:25:00,
2013-11-03 00:31:00,36.8,31.5,30.07,SE,146,5.0,5.0,81,0.00,,,0.00,Wunderground v.1.15,2013-11-03 05:31:00,
2013-11-03 00:37:00,36.6,31.0,30.06,SE,146,4.0,4.0,80,0.00,,,0.00,Wunderground v.1.15,2013-11-03 05:37:00,
2013-11-03 00:43:00,36.4,31.1,30.06,SE,141,4.0,7.0,81,0.00,,,0.00,Wunderground v.1.15,2013-11-03 05:43:00,
2013-11-03 00:48:00,36.2,30.9,30.06,SSE,147,4.0,5.0,81,0.00,,,0.00,Wunderground v.1.15,2013-11-03 05:48:00,
2013-11-03 00:54:00,35.9,30.6,30.06,SE,142,4.0,5.0,81,0.00,,,0.00,Wunderground v.1.15,2013-11-03 05:54:00,
2013-11-03 01:00:00,35.7,30.7,30.06,SSE,147,5.0,5.0,82,0.00,,,0.00,Wunderground v.1.15,2013-11-03 06:00:00,
2013-11-03 01:06:00,35.3,30.4,30.06,SSE,153,4.0,5.0,82,0.00,,,0.00,Wunderground v.1.15,2013-11-03 06:06:00,
2013-11-03 01:13:00,34.9,30.6,30.06,SE,131,4.0,5.0,84,0.00,,,0.00,Wunderground v.1.15,2013-11-03 06:13:00,
2013-11-03 01:18:00,34.9,30.6,30.07,SE,142,5.0,5.0,84,0.00,,,0.00,Wunderground v.1.15,2013-11-03 06:18:00,
2013-11-03 01:23:00,34.8,30.5,30.07,SE,140,7.0,7.0,84,0.00,,,0.00,Wunderground v.1.15,2013-11-03 06:23:00,
2013-11-03 01:29:00,34.8,30.5,30.06,SE,138,5.0,7.0,84,0.00,,,0.00,Wunderground v.1.15,2013-11-03 06:29:00,
2013-11-03 01:35:00,34.7,30.4,30.07,SSE,150,5.0,7.0,84,0.00,,,0.00,Wunderground v.1.15,2013-11-03 06:35:00,
2013-11-03 01:41:00,34.6,30.3,30.06,SE,144,4.0,6.0,84,0.00,,,0.00,Wunderground v.1.15,2013-11-03 06:41:00,
2013-11-03 01:46:00,34.5,30.5,30.07,SSE,147,5.0,6.0,85,0.00,,,0.00,Wunderground v.1.15,2013-11-03 06:46:00,
2013-11-03 01:52:00,34.3,30.0,30.07,SE,146,5.0,5.0,84,0.00,,,0.00,Wunderground v.1.15,2013-11-03 06:52:00,
2013-11-03 01:58:00,34.0,30.0,30.07,SE,146,5.0,5.0,85,0.00,,,0.00,Wunderground v.1.15,2013-11-03 06:58:00,
2013-11-03 01:03:00,33.8,30.1,30.06,SE,138,5.0,7.0,86,0.00,,,0.00,Wunderground v.1.15,2013-11-03 07:03:00,
2013-11-03 01:09:00,33.8,30.1,30.06,SE,139,5.0,7.0,86,0.00,,,0.00,Wunderground v.1.15,2013-11-03 07:09:00,
2013-11-03 01:15:00,33.6,29.9,30.06,SSE,147,5.0,7.0,86,0.00,,,0.00,Wunderground v.1.15,2013-11-03 07:15:00,
2013-11-03 01:21:00,33.4,29.7,30.06,SE,146,5.0,5.0,86,0.00,,,0.00,Wunderground v.1.15,2013-11-03 07:21:00,
2013-11-03 01:26:00,33.2,29.5,30.06,SSE,147,5.0,5.0,86,0.00,,,0.00,Wunderground v.1.15,2013-11-03 07:26:00,
2013-11-03 01:32:00,33.0,29.3,30.06,SSE,148,5.0,5.0,86,0.00,,,0.00,Wunderground v.1.15,2013-11-03 07:32:00,
2013-11-03 01:38:00,32.8,29.4,30.06,SSE,148,4.0,5.0,87,0.00,,,0.00,Wunderground v.1.15,2013-11-03 07:38:00,
2013-11-03 01:44:00,32.6,29.4,30.06,SSE,150,5.0,5.0,88,0.00,,,0.00,Wunderground v.1.15,2013-11-03 07:44:00,
2013-11-03 01:49:00,32.4,29.2,30.06,SSE,148,5.0,5.0,88,0.00,,,0.00,Wunderground v.1.15,2013-11-03 07:49:00,
2013-11-03 01:55:00,32.5,29.3,30.06,SE,142,4.0,5.0,88,0.00,,,0.00,Wunderground v.1.15,2013-11-03 07:55:00,
2013-11-03 02:01:00,32.5,29.3,30.06,SE,143,4.0,5.0,88,0.00,,,0.00,Wunderground v.1.15,2013-11-03 08:01:00,
2013-11-03 02:07:00,32.7,29.8,30.06,SE,136,5.0,5.0,89,0.00,,,0.00,Wunderground v.1.15,2013-11-03 08:07:00,
2013-11-03 02:12:00,33.0,30.1,30.06,SE,136,7.0,8.0,89,0.00,,,0.00,Wunderground v.1.15,2013-11-03 08:12:00,
2013-11-03 02:17:00,33.0,29.8,30.06,SE,138,5.0,6.0,88,0.00,,,0.00,Wunderground v.1.15,2013-11-03 08:17:00,
2013-11-03 02:22:00,32.9,29.5,30.05,SE,138,5.0,7.0,87,0.00,,,0.00,Wunderground v.1.15,2013-11-03 08:22:00,
2013-11-03 02:27:00,32.8,29.6,30.05,SE,141,8.0,8.0,88,0.00,,,0.00,Wunderground v.1.15,2013-11-03 08:27:00,
2013-11-03 02:32:00,32.9,29.7,30.05,SE,145,6.0,8.0,88,0.00,,,0.00,Wunderground v.1.15,2013-11-03 08:32:00,
2013-11-03 02:37:00,33.0,29.8,30.05,SE,138,5.0,7.0,88,0.00,,,0.00,Wunderground v.1.15,2013-11-03 08:37:00,
2013-11-03 02:42:00,32.8,29.6,30.05,SE,138,7.0,8.0,88,0.00,,,0.00,Wunderground v.1.15,2013-11-03 08:42:00,
2013-11-03 02:47:00,32.8,29.6,30.04,SE,136,5.0,6.0,88,0.00,,,0.00,Wunderground v.1.15,2013-11-03 08:47:00,
2013-11-03 02:52:00,32.7,29.5,30.05,SE,135,5.0,7.0,88,0.00,,,0.00,Wunderground v.1.15,2013-11-03 08:52:00,
2013-11-03 02:57:00,32.7,29.5,30.04,SE,141,7.0,7.0,88,0.00,,,0.00,Wunderground v.1.15,2013-11-03 08:57:00,
2013-11-03 03:02:00,32.6,29.7,30.04,SE,142,5.0,8.0,89,0.00,,,0.00,Wunderground v.1.15,2013-11-03 09:02:00,
2013-11-03 03:07:00,32.7,29.8,30.04,SE,139,5.0,5.0,89,0.00,,,0.00,Wunderground v.1.15,2013-11-03 09:07:00,
2013-11-03 03:12:00,32.7,29.8,30.04,SE,134,5.0,8.0,89,0.00,,,0.00,Wunderground v.1.15,2013-11-03 09:12:00,
2013-11-03 03:17:00,32.8,29.9,30.04,SE,138,5.0,7.0,89,0.00,,,0.00,Wunderground v.1.15,2013-11-03 09:17:00,
2013-11-03 03:22:00,32.8,29.6,30.04,SE,135,7.0,8.0,88,0.00,,,0.00,Wunderground v.1.15,2013-11-03 09:22:00,
2013-11-03 03:27:00,32.8,29.6,30.03,SSE,154,6.0,7.0,88,0.00,,,0.00,Wunderground v.1.15,2013-11-03 09:27:00,
2013-11-03 03:32:00,32.7,29.8,30.03,SE,138,4.0,9.0,89,0.00,,,0.00,Wunderground v.1.15,2013-11-03 09:32:00,
2013-11-03 03:37:00,32.6,29.7,30.03,SE,142,8.0,8.0,89,0.00,,,0.00,Wunderground v.1.15,2013-11-03 09:37:00,
2013-11-03 03:42:00,32.6,29.7,30.03,SSE,151,6.0,9.0,89,0.00,,,0.00,Wunderground v.1.15,2013-11-03 09:42:00,
2013-11-03 03:47:00,32.7,29.8,30.03,SE,134,5.0,7.0,89,0.00,,,0.00,Wunderground v.1.15,2013-11-03 09:47:00,
2013-11-03 03:52:00,32.6,29.7,30.02,SE,134,4.0,8.0,89,0.00,,,0.00,Wunderground v.1.15,2013-11-03 09:52:00,
2013-11-03 03:57:00,32.5,29.6,30.02,SE,132,7.0,8.0,89,0.00,,,0.00,Wunderground v.1.15,2013-11-03 09:57:00,
2013-11-03 04:02:00,32.7,29.8,30.02,SE,136,8.0,9.0,89,0.00,,,0.00,Wunderground v.1.15,2013-11-03 10:02:00,
2013-11-03 04:07:00,32.8,29.9,30.02,SE,140,7.0,9.0,89,0.00,,,0.00,Wunderground v.1.15,2013-11-03 10:07:00,
2013-11-03 04:12:00,32.6,29.4,30.02,SE,136,5.0,9.0,88,0.00,,,0.00,Wunderground v.1.15,2013-11-03 10:12:00,
2013-11-03 04:18:00,32.4,29.2,30.02,SE,145,6.0,6.0,88,0.00,,,0.00,Wunderground v.1.15,2013-11-03 10:18:00,
2013-11-03 04:23:00,32.3,29.4,30.02,SE,140,5.0,8.0,89,0.00,,,0.00,Wunderground v.1.15,2013-11-03 10:23:00,
2013-11-03 04:28:00,32.1,29.2,30.01,SSE,156,5.0,6.0,89,0.00,,,0.00,Wunderground v.1.15,2013-11-03 10:28:00,
2013-11-03 04:33:00,31.9,29.0,30.02,SSE,153,5.0,8.0,89,0.00,,,0.00,Wunderground v.1.15,2013-11-03 10:33:00,
2013-11-03 04:38:00,31.6,28.5,30.02,SSE,155,6.0,7.0,88,0.00,,,0.00,Wunderground v.1.15,2013-11-03 10:38:00,
2013-11-03 04:43:00,31.4,28.5,30.01,SSE,154,7.0,7.0,89,0.00,,,0.00,Wunderground v.1.15,2013-11-03 10:43:00,
2013-11-03 04:48:00,31.2,28.3,30.01,SSE,158,7.0,7.0,89,0.00,,,0.00,Wunderground v.1.15,2013-11-03 10:48:00,
2013-11-03 04:53:00,31.0,28.1,30.01,SSE,161,5.0,7.0,89,0.00,,,0.00,Wunderground v.1.15,2013-11-03 10:53:00,
2013-11-03 04:58:00,30.8,28.2,30.01,SSE,154,6.0,7.0,90,0.00,,,0.00,Wunderground v.1.15,2013-11-03 10:58:00,
2013-11-03 05:03:00,30.9,28.6,30.01,SSE,152,7.0,9.0,91,0.00,,,0.00,Wunderground v.1.15,2013-11-03 11:03:00,
2013-11-03 05:08:00,31.0,28.7,30.01,SSE,155,6.0,8.0,91,0.00,,,0.00,Wunderground v.1.15,2013-11-03 11:08:00,
2013-11-03 05:13:00,31.0,28.7,30.01,SSE,149,8.0,9.0,91,0.00,,,0.00,Wunderground v.1.15,2013-11-03 11:13:00,
2013-11-03 05:18:00,31.0,28.7,30.01,SSE,150,8.0,8.0,91,0.00,,,0.00,Wunderground v.1.15,2013-11-03 11:18:00,
2013-11-03 05:23:00,31.2,29.1,30.01,SSE,152,8.0,10.0,92,0.00,,,0.00,Wunderground v.1.15,2013-11-03 11:23:00,
2013-11-03 05:28:00,31.5,29.4,30.01,SSE,157,7.0,10.0,92,0.00,,,0.00,Wunderground v.1.15,2013-11-03 11:28:00,
2013-11-03 05:33:00,31.8,29.7,30.01,SSE,153,8.0,11.0,92,0.00,,,0.00,Wunderground v.1.15,2013-11-03 11:33:00,
2013-11-03 05:38:00,32.0,29.9,30.01,SSE,154,9.0,9.0,92,0.00,,,0.00,Wunderground v.1.15,2013-11-03 11:38:00,
2013-11-03 05:43:00,32.2,29.9,30.01,SSE,148,10.0,10.0,91,0.00,,,0.00,Wunderground v.1.15,2013-11-03 11:43:00,
2013-11-03 05:48:00,32.3,30.0,30.00,SSE,152,9.0,11.0,91,0.00,,,0.00,Wunderground v.1.15,2013-11-03 11:48:00,
2013-11-03 05:53:00,32.5,30.4,30.00,SSE,161,9.0,13.0,92,0.00,,,0.00,Wunderground v.1.15,2013-11-03 11:53:00,
2013-11-03 05:58:00,32.8,30.5,30.00,SSE,160,9.0,13.0,91,0.00,,,0.00,Wunderground v.1.15,2013-11-03 11:58:00,
2013-11-03 06:03:00,33.3,31.0,30.00,SSE,149,12.0,14.0,91,0.00,,,0.00,Wunderground v.1.15,2013-11-03 12:03:00,
2013-11-03 06:08:00,33.6,31.0,30.00,SSE,159,12.0,16.0,90,0.00,,,0.00,Wunderground v.1.15,2013-11-03 12:08:00,
2013-11-03 06:14:00,33.8,31.2,29.99,SE,143,12.0,16.0,90,0.00,,,0.00,Wunderground v.1.15,2013-11-03 12:14:00,
2013-11-03 06:19:00,33.9,31.3,29.99,SSE,150,11.0,15.0,90,0.00,,,0.00,Wunderground v.1.15,2013-11-03 12:19:00,
2013-11-03 06:24:00,33.9,31.3,29.99,SSE,157,9.0,15.0,90,0.00,,,0.00,Wunderground v.1.15,2013-11-03 12:24:00,
2013-11-03 06:29:00,34.0,31.4,29.99,SSE,153,10.0,15.0,90,0.00,,,0.00,Wunderground v.1.15,2013-11-03 12:29:00,
2013-11-03 06:34:00,34.1,31.5,29.99,SSE,159,9.0,15.0,90,0.00,,,0.00,Wunderground v.1.15,2013-11-03 12:34:00,
2013-11-03 06:39:00,34.2,31.3,29.98,SSE,155,12.0,12.0,89,0.00,,,0.00,Wunderground v.1.15,2013-11-03 12:39:00,
2013-11-03 06:44:00,34.1,31.2,29.98,SSE,159,9.0,15.0,89,0.00,,,0.00,Wunderground v.1.15,2013-11-03 12:44:00,
2013-11-03 06:49:00,34.1,31.2,29.98,SSE,153,10.0,14.0,89,0.00,,,0.00,Wunderground v.1.15,2013-11-03 12:49:00,
2013-11-03 06:54:00,34.2,31.3,29.98,SSE,155,12.0,16.0,89,0.00,,,0.00,Wunderground v.1.15,2013-11-03 12:54:00,
2013-11-03 06:59:00,34.4,31.5,29.98,SSE,156,12.0,14.0,89,0.00,,,0.00,Wunderground v.1.15,2013-11-03 12:59:00,
2013-11-03 07:04:00,34.6,31.7,29.98,SSE,148,13.0,16.0,89,0.00,,,0.00,Wunderground v.1.15,2013-11-03 13:04:00,
2013-11-03 07:09:00,34.9,31.7,29.98,SSE,157,12.0,14.0,88,0.00,,,0.00,Wunderground v.1.15,2013-11-03 13:09:00,
2013-11-03 07:14:00,35.0,31.8,29.98,SE,145,12.0,12.0,88,0.00,,,0.00,Wunderground v.1.15,2013-11-03 13:14:00,
2013-11-03 07:19:00,35.1,31.9,29.98,SSE,151,12.0,17.0,88,0.00,,,0.00,Wunderground v.1.15,2013-11-03 13:19:00,
2013-11-03 07:24:00,35.2,32.0,29.98,SE,146,10.0,19.0,88,0.00,,,0.00,Wunderground v.1.15,2013-11-03 13:24:00,
2013-11-03 07:29:00,35.3,32.1,29.98,SSE,154,16.0,19.0,88,0.00,,,0.00,Wunderground v.1.15,2013-11-03 13:29:00,
2013-11-03 07:34:00,35.4,32.2,29.98,SSE,161,15.0,16.0,88,0.00,,,0.00,Wunderground v.1.15,2013-11-03 13:34:00,
2013-11-03 07:39:00,35.5,32.3,29.99,SSE,155,18.0,20.0,88,0.00,,,0.00,Wunderground v.1.15,2013-11-03 13:39:00,
2013-11-03 07:44:00,35.5,32.3,29.99,SSE,163,13.0,14.0,88,0.00,,,0.00,Wunderground v.1.15,2013-11-03 13:44:00,
2013-11-03 07:49:00,35.6,32.4,29.98,SSE,157,10.0,17.0,88,0.00,,,0.00,Wunderground v.1.15,2013-11-03 13:49:00,
2013-11-03 07:54:00,35.8,32.6,29.98,SSE,152,12.0,16.0,88,0.00,,,0.00,Wunderground v.1.15,2013-11-03 13:54:00,
2013-11-03 07:59:00,36.0,32.8,29.98,South,175,11.0,19.0,88,0.00,,,0.00,Wunderground v.1.15,2013-11-03 13:59:00,
2013-11-03 08:04:00,36.3,33.1,29.98,SSE,159,20.0,20.0,88,0.00,,,0.00,Wunderground v.1.15,2013-11-03 14:04:00,
2013-11-03 08:09:00,37.0,33.8,29.98,SSE,148,14.0,20.0,88,0.00,,,0.00,Wunderground v.1.15,2013-11-03 14:09:00,
2013-11-03 08:14:00,37.9,34.4,29.98,SSE,163,19.0,21.0,87,0.00,,,0.00,Wunderground v.1.15,2013-11-03 14:14:00,
2013-11-03 08:19:00,38.7,34.6,29.98,SSE,153,17.0,26.0,85,0.00,,,0.00,Wunderground v.1.15,2013-11-03 14:19:00,
2013-11-03 08:24:00,39.3,34.9,29.98,SSE,163,17.0,24.0,84,0.00,,,0.00,Wunderground v.1.15,2013-11-03 14:24:00,
2013-11-03 08:29:00,39.6,34.9,29.98,South,172,14.0,26.0,83,0.00,,,0.00,Wunderground v.1.15,2013-11-03 14:29:00,
2013-11-03 08:35:00,39.8,34.8,29.98,SSE,155,18.0,25.0,82,0.00,,,0.00,Wunderground v.1.15,2013-11-03 14:35:00,
2013-11-03 08:40:00,40.4,35.3,29.98,SSE,160,18.0,20.0,82,0.00,,,0.00,Wunderground v.1.15,2013-11-03 14:40:00,
2013-11-03 08:45:00,41.0,35.6,29.98,South,174,18.0,23.0,81,0.00,,,0.00,Wunderground v.1.15,2013-11-03 14:45:00,
2013-11-03 08:50:00,41.4,35.7,29.97,SSE,157,17.0,22.0,80,0.00,,,0.00,Wunderground v.1.15,2013-11-03 14:50:00,
2013-11-03 08:55:00,41.8,35.8,29.97,SSE,159,19.0,24.0,79,0.00,,,0.00,Wunderground v.1.15,2013-11-03 14:55:00,
2013-11-03 09:00:00,42.4,36.0,29.97,SE,139,25.0,25.0,78,0.00,,,0.00,Wunderground v.1.15,2013-11-03 15:00:00,
2013-11-03 09:05:00,43.0,36.3,29.97,SSE,166,21.0,29.0,77,0.00,,,0.00,Wunderground v.1.15,2013-11-03 15:05:00,
2013-11-03 09:10:00,43.4,36.3,29.97,South,169,20.0,30.0,76,0.00,,,0.00,Wunderground v.1.15,2013-11-03 15:10:00,
2013-11-03 09:16:00,43.8,36.0,29.97,SSE,156,25.0,31.0,74,0.00,,,0.00,Wunderground v.1.15,2013-11-03 15:16:00,
2013-11-03 09:20:00,44.2,36.4,29.97,SSE,165,24.0,28.0,74,0.00,,,0.00,Wunderground v.1.15,2013-11-03 15:20:00,
2013-11-03 09:26:00,44.8,36.7,29.96,SSE,159,23.0,28.0,73,0.00,,,0.00,Wunderground v.1.15,2013-11-03 15:26:00,
2013-11-03 09:31:00,45.0,36.2,29.96,SSE,160,26.0,28.0,71,0.00,,,0.00,Wunderground v.1.15,2013-11-03 15:31:00,
2013-11-03 09:36:00,45.5,36.6,29.95,SSE,163,28.0,33.0,71,0.00,,,0.00,Wunderground v.1.15,2013-11-03 15:36:00,
2013-11-03 09:41:00,46.0,36.4,29.95,South,170,24.0,27.0,69,0.00,,,0.00,Wunderground v.1.15,2013-11-03 15:41:00,
2013-11-03 09:46:00,46.6,36.6,29.95,South,175,25.0,32.0,68,0.00,,,0.00,Wunderground v.1.15,2013-11-03 15:46:00,
2013-11-03 09:51:00,47.0,36.6,29.94,SSE,153,22.0,27.0,67,0.00,,,0.00,Wunderground v.1.15,2013-11-03 15:51:00,
2013-11-03 09:56:00,47.5,36.3,29.94,SSE,153,27.0,34.0,65,0.00,,,0.00,Wunderground v.1.15,2013-11-03 15:56:00,
2013-11-03 10:01:00,48.0,36.0,29.94,SSE,153,27.0,32.0,63,0.00,,,0.00,Wunderground v.1.15,2013-11-03 16:01:00,
2013-11-03 10:06:00,48.4,36.4,29.93,SE,144,33.0,36.0,63,0.00,,,0.00,Wunderground v.1.15,2013-11-03 16:06:00,
2013-11-03 10:11:00,48.5,35.7,29.93,SSE,155,30.0,34.0,61,0.00,,,0.00,Wunderground v.1.15,2013-11-03 16:11:00,
2013-11-03 10:16:00,48.8,36.4,29.92,SSE,163,26.0,34.0,62,0.00,,,0.00,Wunderground v.1.15,2013-11-03 16:16:00,
2013-11-03 10:21:00,48.8,36.4,29.92,SSE,154,25.0,31.0,62,0.00,,,0.00,Wunderground v.1.15,2013-11-03 16:21:00,
2013-11-03 10:26:00,48.4,35.6,29.92,SSE,153,22.0,35.0,61,0.00,,,0.00,Wunderground v.1.15,2013-11-03 16:26:00,
2013-11-03 10:31:00,49.3,36.8,29.91,SSE,161,30.0,32.0,62,0.00,,,0.00,Wunderground v.1.15,2013-11-03 16:31:00,
2013-11-03 10:36:00,50.1,36.3,29.91,South,171,26.0,34.0,59,0.00,,,0.00,Wunderground v.1.15,2013-11-03 16:36:00,
2013-11-03 10:41:00,50.9,36.6,29.91,SSE,159,31.0,38.0,58,0.00,,,0.00,Wunderground v.1.15,2013-11-03 16:41:00,
2013-11-03 10:46:00,50.9,36.2,29.91,SSE,161,31.0,38.0,57,0.00,,,0.00,Wunderground v.1.15,2013-11-03 16:46:00,
2013-11-03 10:51:00,51.0,35.4,29.90,SSE,153,28.0,36.0,55,0.00,,,0.00,Wunderground v.1.15,2013-11-03 16:51:00,
2013-11-03 10:56:00,50.9,34.8,29.90,SSE,157,24.0,42.0,54,0.00,,,0.00,Wunderground v.1.15,2013-11-03 16:56:00,
2013-11-03 11:01:00,51.2,35.6,29.90,SSE,153,27.0,36.0,55,0.00,,,0.00,Wunderground v.1.15,2013-11-03 17:01:00,
2013-11-03 11:06:00,51.6,35.5,29.89,SSE,156,29.0,45.0,54,0.00,,,0.00,Wunderground v.1.15,2013-11-03 17:06:00,
2013-11-03 11:11:00,51.8,35.2,29.88,SE,142,31.0,34.0,53,0.00,,,0.00,Wunderground v.1.15,2013-11-03 17:11:00,
2013-11-03 11:16:00,51.9,35.3,29.88,SSE,153,33.0,43.0,53,0.00,,,0.00,Wunderground v.1.15,2013-11-03 17:16:00,
2013-11-03 11:21:00,52.3,34.7,29.87,SSE,165,38.0,38.0,51,0.00,,,0.00,Wunderground v.1.15,2013-11-03 17:21:00,
2013-11-03 11:26:00,52.8,34.2,29.86,South,169,21.0,40.0,49,0.00,,,0.00,Wunderground v.1.15,2013-11-03 17:26:00,
2013-11-03 11:31:00,53.0,33.8,29.86,SSE,168,38.0,39.0,48,0.00,,,0.00,Wunderground v.1.15,2013-11-03 17:31:00,
2013-11-03 11:36:00,52.9,33.2,29.85,SSE,159,28.0,40.0,47,0.00,,,0.00,Wunderground v.1.15,2013-11-03 17:36:00,
2013-11-03 11:41:00,52.8,33.6,29.85,SSE,167,27.0,40.0,48,0.00,,,0.00,Wunderground v.1.15,2013-11-03 17:41:00,
2013-11-03 11:46:00,52.8,32.6,29.84,SSE,154,19.0,41.0,46,0.00,,,0.00,Wunderground v.1.15,2013-11-03 17:46:00,
2013-11-03 11:51:00,53.3,33.0,29.84,SSE,155,41.0,41.0,46,0.00,,,0.00,Wunderground v.1.15,2013-11-03 17:51:00,
2013-11-03 11:56:00,53.7,33.4,29.84,SSE,165,42.0,42.0,46,0.00,,,0.00,Wunderground v.1.15,2013-11-03 17:56:00,
2013-11-03 12:01:00,53.6,33.3,29.83,SSE,158,28.0,42.0,46,0.00,,,0.00,Wunderground v.1.15,2013-11-03 18:01:00,
2013-11-03 12:06:00,53.8,32.4,29.82,SSE,161,32.0,42.0,44,0.00,,,0.00,Wunderground v.1.15,2013-11-03 18:06:00,
2013-11-03 12:11:00,53.7,31.7,29.83,SSE,162,39.0,39.0,43,0.00,,,0.00,Wunderground v.1.15,2013-11-03 18:11:00,
2013-11-03 12:16:00,53.8,31.8,29.82,SSE,163,34.0,42.0,43,0.00,,,0.00,Wunderground v.1.15,2013-11-03 18:16:00,
2013-11-03 12:21:00,53.7,31.7,29.82,South,171,31.0,42.0,43,0.00,,,0.00,Wunderground v.1.15,2013-11-03 18:21:00,
2013-11-03 12:26:00,53.8,31.8,29.81,SSE,155,35.0,43.0,43,0.00,,,0.00,Wunderground v.1.15,2013-11-03 18:26:00,
2013-11-03 12:31:00,54.0,31.4,29.81,South,169,28.0,47.0,42,0.00,,,0.00,Wunderground v.1.15,2013-11-03 18:31:00,
2013-11-03 12:36:00,54.6,31.9,29.81,SSE,153,23.0,47.0,42,0.00,,,0.00,Wunderground v.1.15,2013-11-03 18:36:00,
2013-11-03 12:41:00,54.5,31.3,29.81,SSE,153,34.0,40.0,41,0.00,,,0.00,Wunderground v.1.15,2013-11-03 18:41:00,
2013-11-03 12:46:00,54.2,31.0,29.80,SSE,157,29.0,41.0,41,0.00,,,0.00,Wunderground v.1.15,2013-11-03 18:46:00,
2013-11-03 12:51:00,54.0,31.4,29.80,SSE,159,30.0,37.0,42,0.00,,,0.00,Wunderground v.1.15,2013-11-03 18:51:00,
2013-11-03 12:56:00,54.2,31.6,29.80,South,177,30.0,42.0,42,0.00,,,0.00,Wunderground v.1.15,2013-11-03 18:56:00,
2013-11-03 13:01:00,54.4,31.2,29.80,SSE,161,26.0,40.0,41,0.00,,,0.00,Wunderground v.1.15,2013-11-03 19:01:00,
2013-11-03 13:06:00,54.5,31.9,29.80,SSE,159,25.0,40.0,42,0.00,,,0.00,Wunderground v.1.15,2013-11-03 19:06:00,
2013-11-03 13:11:00,54.4,31.8,29.80,South,175,23.0,43.0,42,0.00,,,0.00,Wunderground v.1.15,2013-11-03 19:11:00,
2013-11-03 13:16:00,54.4,31.2,29.79,SSE,157,31.0,43.0,41,0.00,,,0.00,Wunderground v.1.15,2013-11-03 19:16:00,
2013-11-03 13:21:00,54.6,31.3,29.79,SSE,166,33.0,40.0,41,0.00,,,0.00,Wunderground v.1.15,2013-11-03 19:21:00,
2013-11-03 13:26:00,55.1,31.8,29.79,SSE,165,38.0,40.0,41,0.00,,,0.00,Wunderground v.1.15,2013-11-03 19:26:00,
2013-11-03 13:31:00,55.9,32.5,29.80,SSE,158,30.0,37.0,41,0.00,,,0.00,Wunderground v.1.15,2013-11-03 19:31:00,
2013-11-03 13:36:00,56.1,32.1,29.80,SSE,168,28.0,41.0,40,0.00,,,0.00,Wunderground v.1.15,2013-11-03 19:36:00,
2013-11-03 13:41:00,55.8,31.8,29.80,South,184,21.0,34.0,40,0.00,,,0.00,Wunderground v.1.15,2013-11-03 19:41:00,
2013-11-03 13:46:00,55.6,31.6,29.80,South,183,27.0,44.0,40,0.00,,,0.00,Wunderground v.1.15,2013-11-03 19:46:00,
2013-11-03 13:51:00,55.4,31.5,29.79,SSE,154,28.0,36.0,40,0.00,,,0.00,Wunderground v.1.15,2013-11-03 19:51:00,
2013-11-03 13:56:00,55.3,32.0,29.80,SSE,166,24.0,42.0,41,0.00,,,0.00,Wunderground v.1.15,2013-11-03 19:56:00,
2013-11-03 14:01:00,55.2,31.3,29.79,SSE,163,33.0,38.0,40,0.00,,,0.00,Wunderground v.1.15,2013-11-03 20:01:00,
2013-11-03 14:06:00,55.1,31.2,29.80,South,175,25.0,38.0,40,0.00,,,0.00,Wunderground v.1.15,2013-11-03 20:06:00,
2013-11-03 14:11:00,55.0,31.1,29.80,South,183,26.0,45.0,40,0.00,,,0.00,Wunderground v.1.15,2013-11-03 20:11:00,
2013-11-03 14:16:00,54.8,31.5,29.79,South,173,25.0,45.0,41,0.00,,,0.00,Wunderground v.1.15,2013-11-03 20:16:00,
2013-11-03 14:21:00,54.6,31.9,29.79,SSE,152,21.0,34.0,42,0.00,,,0.00,Wunderground v.1.15,2013-11-03 20:21:00,
2013-11-03 14:27:00,54.3,32.3,29.79,SSE,154,25.0,40.0,43,0.00,,,0.00,Wunderground v.1.15,2013-11-03 20:27:00,
2013-11-03 14:32:00,54.2,32.7,29.80,South,176,19.0,33.0,44,0.00,,,0.00,Wunderground v.1.15,2013-11-03 20:32:00,
2013-11-03 14:37:00,54.6,33.1,29.79,SSE,164,29.0,38.0,44,0.00,,,0.00,Wunderground v.1.15,2013-11-03 20:37:00,
2013-11-03 14:42:00,55.3,33.2,29.79,SSE,164,26.0,34.0,43,0.00,,,0.00,Wunderground v.1.15,2013-11-03 20:42:00,
2013-11-03 14:47:00,55.4,33.3,29.79,SSE,156,21.0,38.0,43,0.00,,,0.00,Wunderground v.1.15,2013-11-03 20:47:00,
2013-11-03 14:52:00,55.3,33.7,29.78,SSE,148,23.0,35.0,44,0.00,,,0.00,Wunderground v.1.15,2013-11-03 20:52:00,
2013-11-03 14:57:00,55.1,33.0,29.78,SSE,149,36.0,36.0,43,0.00,,,0.00,Wunderground v.1.15,2013-11-03 20:57:00,
2013-11-03 15:02:00,55.0,32.3,29.78,South,177,24.0,34.0,42,0.00,,,0.00,Wunderground v.1.15,2013-11-03 21:02:00,
2013-11-03 15:07:00,54.8,32.1,29.78,SSE,156,34.0,41.0,42,0.00,,,0.00,Wunderground v.1.15,2013-11-03 21:07:00,
2013-11-03 15:12:00,54.7,32.6,29.78,SE,146,29.0,36.0,43,0.00,,,0.00,Wunderground v.1.15,2013-11-03 21:12:00,
2013-11-03 15:17:00,54.5,32.4,29.78,South,170,32.0,38.0,43,0.00,,,0.00,Wunderground v.1.15,2013-11-03 21:17:00,
2013-11-03 15:22:00,54.4,32.9,29.78,SSE,165,27.0,34.0,44,0.00,,,0.00,Wunderground v.1.15,2013-11-03 21:22:00,
2013-11-03 15:27:00,54.0,32.6,29.78,SSE,168,32.0,40.0,44,0.00,,,0.00,Wunderground v.1.15,2013-11-03 21:27:00,
2013-11-03 15:32:00,53.7,33.4,29.78,SE,146,25.0,31.0,46,0.00,,,0.00,Wunderground v.1.15,2013-11-03 21:32:00,
2013-11-03 15:37:00,53.5,33.2,29.77,SSE,162,31.0,36.0,46,0.00,,,0.00,Wunderground v.1.15,2013-11-03 21:37:00,
2013-11-03 15:42:00,53.5,33.2,29.78,SSE,159,18.0,37.0,46,0.00,,,0.00,Wunderground v.1.15,2013-11-03 21:42:00,
2013-11-03 15:47:00,53.4,33.1,29.78,SSE,161,21.0,38.0,46,0.00,,,0.00,Wunderground v.1.15,2013-11-03 21:47:00,
2013-11-03 15:52:00,53.3,33.0,29.77,SSE,161,25.0,35.0,46,0.00,,,0.00,Wunderground v.1.15,2013-11-03 21:52:00,
2013-11-03 15:57:00,53.1,33.4,29.77,South,172,20.0,37.0,47,0.00,,,0.00,Wunderground v.1.15,2013-11-03 21:57:00,
2013-11-03 16:02:00,52.8,33.1,29.78,SSE,157,24.0,29.0,47,0.00,,,0.00,Wunderground v.1.15,2013-11-03 22:02:00,
2013-11-03 16:07:00,52.5,33.4,29.77,SSE,163,26.0,37.0,48,0.00,,,0.00,Wunderground v.1.15,2013-11-03 22:07:00,
2013-11-03 16:12:00,52.3,33.2,29.77,SSE,157,26.0,34.0,48,0.00,,,0.00,Wunderground v.1.15,2013-11-03 22:12:00,
2013-11-03 16:17:00,52.2,33.6,29.77,SSE,157,20.0,35.0,49,0.00,,,0.00,Wunderground v.1.15,2013-11-03 22:17:00,
2013-11-03 16:22:00,52.0,33.9,29.77,SE,143,25.0,28.0,50,0.00,,,0.00,Wunderground v.1.15,2013-11-03 22:22:00,
2013-11-03 16:27:00,51.8,33.7,29.76,SE,146,27.0,34.0,50,0.00,,,0.00,Wunderground v.1.15,2013-11-03 22:27:00,
2013-11-03 16:32:00,51.6,34.0,29.76,SSE,161,20.0,27.0,51,0.00,,,0.00,Wunderground v.1.15,2013-11-03 22:32:00,
2013-11-03 16:37:00,51.4,34.3,29.76,SSE,153,20.0,29.0,52,0.00,,,0.00,Wunderground v.1.15,2013-11-03 22:37:00,
2013-11-03 16:42:00,51.3,34.3,29.75,SE,143,27.0,31.0,52,0.00,,,0.00,Wunderground v.1.15,2013-11-03 22:42:00,
2013-11-03 16:47:00,51.2,34.2,29.75,SSE,167,26.0,31.0,52,0.00,,,0.00,Wunderground v.1.15,2013-11-03 22:47:00,
2013-11-03 16:52:00,51.1,34.1,29.75,SSE,153,21.0,29.0,52,0.00,,,0.00,Wunderground v.1.15,2013-11-03 22:52:00,
2013-11-03 16:57:00,51.2,34.2,29.76,SSE,157,19.0,33.0,52,0.00,,,0.00,Wunderground v.1.15,2013-11-03 22:57:00,
2013-11-03 17:02:00,51.1,34.1,29.76,SSE,154,24.0,25.0,52,0.00,,,0.00,Wunderground v.1.15,2013-11-03 23:02:00,
2013-11-03 17:07:00,51.1,34.1,29.76,SSE,154,22.0,35.0,52,0.00,,,0.00,Wunderground v.1.15,2013-11-03 23:07:00,
2013-11-03 17:12:00,51.0,34.5,29.76,SSE,167,22.0,28.0,53,0.00,,,0.00,Wunderground v.1.15,2013-11-03 23:12:00,
2013-11-03 17:17:00,50.9,34.4,29.76,SSE,159,25.0,34.0,53,0.00,,,0.00,Wunderground v.1.15,2013-11-03 23:17:00,
2013-11-03 17:22:00,51.0,34.5,29.77,SSE,159,23.0,32.0,53,0.00,,,0.00,Wunderground v.1.15,2013-11-03 23:22:00,
2013-11-03 17:27:00,50.9,34.4,29.77,SE,141,25.0,32.0,53,0.00,,,0.00,Wunderground v.1.15,2013-11-03 23:27:00,
2013-11-03 17:32:00,50.8,34.3,29.77,SE,136,24.0,26.0,53,0.00,,,0.00,Wunderground v.1.15,2013-11-03 23:32:00,
2013-11-03 17:37:00,50.6,34.1,29.77,SSE,159,20.0,26.0,53,0.00,,,0.00,Wunderground v.1.15,2013-11-03 23:37:00,
2013-11-03 17:42:00,50.5,34.5,29.78,SSE,156,17.0,25.0,54,0.00,,,0.00,Wunderground v.1.15,2013-11-03 23:42:00,
2013-11-03 17:47:00,50.4,34.4,29.78,SSE,150,15.0,31.0,54,0.00,,,0.00,Wunderground v.1.15,2013-11-03 23:47:00,
2013-11-03 17:52:00,50.2,34.6,29.78,SSE,147,18.0,25.0,55,0.00,,,0.00,Wunderground v.1.15,2013-11-03 23:52:00,
2013-11-03 17:57:00,50.1,34.5,29.78,SE,145,20.0,30.0,55,0.00,,,0.00,Wunderground v.1.15,2013-11-03 23:57:00,
2013-11-03 18:02:00,50.2,34.6,29.78,SSE,159,19.0,28.0,55,0.00,,,0.00,Wunderground v.1.15,2013-11-04 00:02:00,
2013-11-03 18:07:00,50.1,34.5,29.78,SE,144,21.0,28.0,55,0.00,,,0.00,Wunderground v.1.15,2013-11-04 00:07:00,
2013-11-03 18:12:00,50.0,34.9,29.79,SSE,165,18.0,27.0,56,0.00,,,0.00,Wunderground v.1.15,2013-11-04 00:12:00,
2013-11-03 18:18:00,50.1,35.0,29.78,SSE,163,18.0,33.0,56,0.00,,,0.00,Wunderground v.1.15,2013-11-04 00:18:00,
2013-11-03 18:23:00,49.9,34.8,29.79,SSE,161,21.0,30.0,56,0.00,,,0.00,Wunderground v.1.15,2013-11-04 00:23:00,
2013-11-03 18:28:00,49.7,35.1,29.79,SE,146,14.0,30.0,57,0.00,,,0.00,Wunderground v.1.15,2013-11-04 00:28:00,
2013-11-03 18:33:00,49.5,34.9,29.79,SSE,161,19.0,27.0,57,0.00,,,0.00,Wunderground v.1.15,2013-11-04 00:33:00,
2013-11-03 18:38:00,49.4,34.8,29.79,SSE,160,21.0,30.0,57,0.00,,,0.00,Wunderground v.1.15,2013-11-04 00:38:00,
2013-11-03 18:43:00,49.3,34.7,29.80,SSE,164,28.0,31.0,57,0.00,,,0.00,Wunderground v.1.15,2013-11-04 00:43:00,
2013-11-03 18:48:00,49.3,35.1,29.80,SSE,166,20.0,31.0,58,0.00,,,0.00,Wunderground v.1.15,2013-11-04 00:48:00,
2013-11-03 18:53:00,49.1,34.9,29.80,SSE,154,21.0,27.0,58,0.00,,,0.00,Wunderground v.1.15,2013-11-04 00:53:00,
2013-11-03 18:58:00,49.1,34.9,29.80,South,188,17.0,32.0,58,0.00,,,0.00,Wunderground v.1.15,2013-11-04 00:58:00,
2013-11-03 19:03:00,49.0,35.3,29.79,South,174,23.0,33.0,59,0.00,,,0.00,Wunderground v.1.15,2013-11-04 01:03:00,
2013-11-03 19:08:00,48.9,35.2,29.80,SSE,153,19.0,33.0,59,0.00,,,0.00,Wunderground v.1.15,2013-11-04 01:08:00,
2013-11-03 19:13:00,48.7,35.0,29.80,SSE,155,23.0,27.0,59,0.00,,,0.00,Wunderground v.1.15,2013-11-04 01:13:00,
2013-11-03 19:18:00,48.7,35.4,29.80,SSE,162,28.0,29.0,60,0.00,,,0.00,Wunderground v.1.15,2013-11-04 01:18:00,
2013-11-03 19:23:00,48.6,35.3,29.80,SSE,159,18.0,27.0,60,0.00,,,0.00,Wunderground v.1.15,2013-11-04 01:23:00,
2013-11-03 19:28:00,48.5,35.7,29.80,SSE,168,21.0,30.0,61,0.00,,,0.00,Wunderground v.1.15,2013-11-04 01:28:00,
2013-11-03 19:33:00,48.5,35.7,29.80,SSE,167,23.0,26.0,61,0.00,,,0.00,Wunderground v.1.15,2013-11-04 01:33:00,
2013-11-03 19:38:00,48.5,35.7,29.80,SSE,158,17.0,27.0,61,0.00,,,0.00,Wunderground v.1.15,2013-11-04 01:38:00,
2013-11-03 19:43:00,48.5,36.1,29.80,SE,144,21.0,30.0,62,0.00,,,0.00,Wunderground v.1.15,2013-11-04 01:43:00,
2013-11-03 19:49:00,48.4,36.0,29.80,SSE,159,18.0,30.0,62,0.00,,,0.00,Wunderground v.1.15,2013-11-04 01:49:00,
2013-11-03 19:54:00,48.2,36.2,29.80,SSE,162,24.0,26.0,63,0.00,,,0.00,Wunderground v.1.15,2013-11-04 01:54:00,
2013-11-03 19:59:00,48.2,36.2,29.80,SSE,160,16.0,28.0,63,0.00,,,0.00,Wunderground v.1.15,2013-11-04 01:59:00,
2013-11-03 20:04:00,48.1,36.1,29.80,SSE,148,16.0,26.0,63,0.00,,,0.00,Wunderground v.1.15,2013-11-04 02:04:00,
2013-11-03 20:09:00,48.1,36.1,29.80,SSE,167,29.0,29.0,63,0.00,,,0.00,Wunderground v.1.15,2013-11-04 02:09:00,
2013-11-03 20:14:00,48.2,36.2,29.79,SSE,161,20.0,33.0,63,0.00,,,0.00,Wunderground v.1.15,2013-11-04 02:14:00,
2013-11-03 20:19:00,48.2,36.6,29.79,South,178,18.0,33.0,64,0.00,,,0.00,Wunderground v.1.15,2013-11-04 02:19:00,
2013-11-03 20:24:00,48.0,36.4,29.79,South,169,23.0,27.0,64,0.00,,,0.00,Wunderground v.1.15,2013-11-04 02:24:00,
2013-11-03 20:29:00,47.9,36.3,29.79,SSE,164,20.0,27.0,64,0.00,,,0.00,Wunderground v.1.15,2013-11-04 02:29:00,
2013-11-03 20:34:00,47.9,36.7,29.79,SSE,167,22.0,28.0,65,0.00,,,0.00,Wunderground v.1.15,2013-11-04 02:34:00,
2013-11-03 20:39:00,47.8,36.6,29.79,SSE,151,22.0,28.0,65,0.00,,,0.00,Wunderground v.1.15,2013-11-04 02:39:00,
2013-11-03 20:44:00,47.8,36.6,29.80,SSE,163,18.0,26.0,65,0.00,,,0.00,Wunderground v.1.15,2013-11-04 02:44:00,
2013-11-03 20:49:00,47.8,36.6,29.79,SSE,156,18.0,27.0,65,0.00,,,0.00,Wunderground v.1.15,2013-11-04 02:49:00,
2013-11-03 20:54:00,47.9,36.7,29.79,SSE,152,16.0,26.0,65,0.00,,,0.00,Wunderground v.1.15,2013-11-04 02:54:00,
2013-11-03 20:59:00,47.8,37.0,29.79,SSE,156,19.0,26.0,66,0.00,,,0.00,Wunderground v.1.15,2013-11-04 02:59:00,
2013-11-03 21:04:00,47.9,36.7,29.80,SSE,161,16.0,30.0,65,0.00,,,0.00,Wunderground v.1.15,2013-11-04 03:04:00,
2013-11-03 21:09:00,48.0,37.2,29.80,SSE,160,21.0,30.0,66,0.00,,,0.00,Wunderground v.1.15,2013-11-04 03:09:00,
2013-11-03 21:14:00,48.0,37.2,29.79,SSE,160,24.0,24.0,66,0.00,,,0.00,Wunderground v.1.15,2013-11-04 03:14:00,
2013-11-03 21:19:00,48.0,37.2,29.80,SSE,155,22.0,27.0,66,0.00,,,0.00,Wunderground v.1.15,2013-11-04 03:19:00,
2013-11-03 21:24:00,47.9,37.1,29.80,SSE,159,15.0,27.0,66,0.00,,,0.00,Wunderground v.1.15,2013-11-04 03:24:00,
2013-11-03 21:29:00,47.9,37.1,29.80,South,171,22.0,33.0,66,0.00,,,0.00,Wunderground v.1.15,2013-11-04 03:29:00,
2013-11-03 21:34:00,48.0,37.2,29.80,SSE,160,22.0,26.0,66,0.00,,,0.00,Wunderground v.1.15,2013-11-04 03:34:00,
2013-11-03 21:39:00,48.1,37.3,29.80,SSE,158,19.0,28.0,66,0.00,,,0.00,Wunderground v.1.15,2013-11-04 03:39:00,
2013-11-03 21:44:00,48.0,37.2,29.80,South,185,16.0,26.0,66,0.00,,,0.00,Wunderground v.1.15,2013-11-04 03:44:00,
2013-11-03 21:49:00,47.9,37.1,29.80,SE,142,21.0,28.0,66,0.00,,,0.00,Wunderground v.1.15,2013-11-04 03:49:00,
2013-11-03 21:54:00,48.1,37.3,29.80,SSE,151,18.0,30.0,66,0.00,,,0.00,Wunderground v.1.15,2013-11-04 03:54:00,
2013-11-03 21:59:00,48.0,37.2,29.80,SSE,167,27.0,30.0,66,0.00,,,0.00,Wunderground v.1.15,2013-11-04 03:59:00,
2013-11-03 22:04:00,48.1,37.3,29.80,SSE,157,18.0,29.0,66,0.00,,,0.00,Wunderground v.1.15,2013-11-04 04:04:00,
2013-11-03 22:09:00,48.0,37.2,29.81,SSE,159,25.0,29.0,66,0.00,,,0.00,Wunderground v.1.15,2013-11-04 04:09:00,
2013-11-03 22:14:00,48.0,37.2,29.80,SSE,149,19.0,29.0,66,0.00,,,0.00,Wunderground v.1.15,2013-11-04 04:14:00,
2013-11-03 22:19:00,48.0,37.6,29.80,SSE,164,25.0,29.0,67,0.00,,,0.00,Wunderground v.1.15,2013-11-04 04:19:00,
2013-11-03 22:24:00,47.9,37.5,29.81,SSE,156,13.0,26.0,67,0.00,,,0.00,Wunderground v.1.15,2013-11-04 04:24:00,
2013-11-03 22:29:00,47.7,37.3,29.80,SSE,167,17.0,26.0,67,0.00,,,0.00,Wunderground v.1.15,2013-11-04 04:29:00,
2013-11-03 22:34:00,47.7,37.7,29.80,South,170,16.0,26.0,68,0.00,,,0.00,Wunderground v.1.15,2013-11-04 04:34:00,
2013-11-03 22:39:00,47.7,37.7,29.80,SSE,154,16.0,29.0,68,0.00,,,0.00,Wunderground v.1.15,2013-11-04 04:39:00,
2013-11-03 22:44:00,47.5,37.5,29.80,SSE,163,20.0,28.0,68,0.00,,,0.00,Wunderground v.1.15,2013-11-04 04:44:00,
2013-11-03 22:49:00,47.5,37.5,29.79,SE,137,17.0,28.0,68,0.00,,,0.00,Wunderground v.1.15,2013-11-04 04:49:00,
2013-11-03 22:54:00,47.4,37.4,29.79,SSE,167,19.0,26.0,68,0.00,,,0.00,Wunderground v.1.15,2013-11-04 04:54:00,
2013-11-03 22:59:00,47.4,37.4,29.79,SSE,158,21.0,26.0,68,0.00,,,0.00,Wunderground v.1.15,2013-11-04 04:59:00,
2013-11-03 23:01:00,47.5,37.8,29.79,SSE,164,19.0,22.0,69,0.00,,,0.00,Wunderground v.1.15,2013-11-04 05:01:00,
2013-11-03 23:06:00,47.4,37.7,29.79,SSE,148,20.0,26.0,69,0.00,,,0.00,Wunderground v.1.15,2013-11-04 05:06:00,
2013-11-03 23:11:00,47.5,37.8,29.79,SSE,166,20.0,23.0,69,0.00,,,0.00,Wunderground v.1.15,2013-11-04 05:11:00,
2013-11-03 23:16:00,47.5,37.8,29.79,SSE,155,19.0,24.0,69,0.00,,,0.00,Wunderground v.1.15,2013-11-04 05:16:00,
2013-11-03 23:21:00,47.5,37.8,29.79,SSE,158,22.0,25.0,69,0.00,,,0.00,Wunderground v.1.15,2013-11-04 05:21:00,
2013-11-03 23:26:00,47.6,37.9,29.79,SSE,159,25.0,25.0,69,0.00,,,0.00,Wunderground v.1.15,2013-11-04 05:26:00,
2013-11-03 23:31:00,47.5,37.8,29.79,SSE,155,15.0,22.0,69,0.00,,,0.00,Wunderground v.1.15,2013-11-04 05:31:00,
2013-11-03 23:36:00,47.4,37.7,29.79,South,169,17.0,27.0,69,0.00,,,0.00,Wunderground v.1.15,2013-11-04 05:36:00,
2013-11-03 23:41:00,47.3,38.0,29.79,SSE,153,21.0,21.0,70,0.00,,,0.00,Wunderground v.1.15,2013-11-04 05:41:00,
2013-11-03 23:46:00,47.3,38.0,29.79,SSE,155,16.0,23.0,70,0.00,,,0.00,Wunderground v.1.15,2013-11-04 05:46:00,
2013-11-03 23:51:00,47.2,37.9,29.79,SSE,155,19.0,24.0,70,0.00,,,0.00,Wunderground v.1.15,2013-11-04 05:51:00,
2013-11-03 23:56:00,47.2,37.9,29.79,SE,143,14.0,24.0,70,0.00,,,0.00,Wunderground v.1.15,2013-11-04 05:56:00,